Simultaneous Nadir Overpasses (SNOs) Predictions

Prediction of SNOs between GOES-16 and METOP-B Satellite Orbit:

Table of predicted SNOs for the next 14.0 days since TLE Epoch: 6/29/2024
Index Date Time (GOES-16) GOES-16 Lat,Lon METOP-B Lat,Lon Distance(km) Time Diff (sec)
1 06/29/2024 14:20:51 0.03, -75.20 -0.11, -74.52 78.11 80
2 07/01/2024 02:37:17 -0.03, -75.21 -0.89, -79.15 448.93 80
3 07/02/2024 02:19:20 -0.03, -75.21 0.22, -74.17 118.90 80
4 07/03/2024 14:35:36 0.03, -75.23 0.83, -78.76 402.83 80
5 07/04/2024 14:17:39 0.03, -75.23 -0.29, -73.78 165.22 80
6 07/06/2024 02:34:03 -0.03, -75.24 -0.75, -78.41 360.89 80
7 07/07/2024 02:13:27 -0.03, -75.26 0.37, -73.43 207.60 80
8 07/08/2024 14:32:22 0.02, -75.28 0.66, -78.02 312.71 80
9 07/09/2024 14:14:26 0.02, -75.30 -0.47, -73.05 256.40 80
10 07/11/2024 02:33:30 -0.02, -75.33 -0.55, -77.67 267.87 80
11 07/12/2024 02:10:14 -0.02, -75.35 0.58, -72.70 301.73 80
